Location: Chuathbaluk
(61.5726°N, 159.2454°W)
Time: 04:50:19
(UTC+00:00)

Transit 2A - Pass Details

Date: 04 December 2020
Orbit: 599 x 960 km, 66.7° (Epoch: 26 January)

Event Time Altitude Azimuth Distance (km) Brightness Sun altitude
Rises 06:03:36 0° 261° (W) 3,560 10.4 -30.9°
Reaches altitude 10° 06:06:17 10° 265° (W) 2,578 9.5 -31.2°
Enters shadow 06:11:33 54° 318° (NW) 1,028 6.7 -31.8°
Maximum altitude 06:12:11 57° 344° (NNW) 990 - -31.9°
Drops below altitude 10° 06:17:32 10° 63° (ENE) 2,349 - -32.5°
Sets 06:19:53 0° 68° (ENE) 3,220 - -32.8°
